DAL22 KGCN-KLAX

Flight info

Callsign DAL22
Flight time 0h 56m
Altitude 30000
Route PARKS4 PGS BLAQQ SHTNR ANJLL4
Aircraft B738/M-SDE2E3FGHIRWXY/LB1

Departure

Time 2026-05-06 04:32
Airport Grand Canyon National Park Airport (KGCN)

Arrival

Time 2026-05-06 05:28
Airport Los Angeles International Airport (KLAX)
Time Latitude Longitude Altitude Speed Heading
2026-05-06 04:13 35.96155 -112.13506 6619 ft 0 kts 43°
2026-05-06 04:26 35.96143 -112.13518 6618 ft 2 kts 12°
2026-05-06 04:26 35.96128 -112.13516 6618 ft 2 kts 323°
2026-05-06 04:26 35.96123 -112.13512 6619 ft 0 kts 307°
2026-05-06 04:29 35.96126 -112.13547 6619 ft 5 kts 268°
2026-05-06 04:29 35.96131 -112.13578 6619 ft 0 kts 289°
2026-05-06 04:30 35.96133 -112.13583 6619 ft 3 kts 291°
2026-05-06 04:30 35.96144 -112.13630 6616 ft 9 kts 270°
2026-05-06 04:30 35.96145 -112.13690 6615 ft 6 kts 275°
2026-05-06 04:31 35.96117 -112.13763 6612 ft 27 kts 227°
2026-05-06 04:31 35.95771 -112.14131 6603 ft 102 kts 220°
2026-05-06 04:31 35.95061 -112.14883 6577 ft 165 kts 220°
2026-05-06 04:31 35.94132 -112.15892 7132 ft 184 kts 223°
2026-05-06 04:32 35.93143 -112.16968 7807 ft 193 kts 222°
2026-05-06 04:32 35.92101 -112.18027 7992 ft 196 kts 221°
2026-05-06 04:32 35.91207 -112.19287 7996 ft 191 kts 248°
2026-05-06 04:32 35.90795 -112.20779 8029 ft 186 kts 257°
2026-05-06 04:33 35.90828 -112.22388 8130 ft 196 kts 285°
2026-05-06 04:33 35.91159 -112.24042 8734 ft 198 kts 282°
2026-05-06 04:33 35.91461 -112.25700 9405 ft 199 kts 282°
2026-05-06 04:33 35.91771 -112.27376 10031 ft 201 kts 283°
2026-05-06 04:34 35.92086 -112.29072 10563 ft 205 kts 283°
2026-05-06 04:34 35.92357 -112.30807 11116 ft 208 kts 273°
2026-05-06 04:34 35.92304 -112.32610 11646 ft 212 kts 267°
2026-05-06 04:34 35.92002 -112.34394 12171 ft 218 kts 254°
2026-05-06 04:35 35.91481 -112.36185 12686 ft 224 kts 252°
2026-05-06 04:35 35.90914 -112.38027 13011 ft 240 kts 252°
2026-05-06 04:35 35.90290 -112.40050 13160 ft 263 kts 252°
2026-05-06 04:35 35.89606 -112.42270 13345 ft 289 kts 251°
2026-05-06 04:36 35.88924 -112.44685 13544 ft 313 kts 255°
2026-05-06 04:36 35.88278 -112.47356 13750 ft 336 kts 255°
2026-05-06 04:36 35.87623 -112.50183 14163 ft 348 kts 256°
2026-05-06 04:36 35.86954 -112.53082 14835 ft 353 kts 255°
2026-05-06 04:37 35.86276 -112.56003 15562 ft 356 kts 255°
2026-05-06 04:37 35.85583 -112.58963 16249 ft 361 kts 255°
2026-05-06 04:37 35.84877 -112.61960 16927 ft 366 kts 255°
2026-05-06 04:37 35.84160 -112.64991 17609 ft 371 kts 255°
2026-05-06 04:38 35.83431 -112.68060 18277 ft 375 kts 255°
2026-05-06 04:38 35.82701 -112.71125 18858 ft 380 kts 255°
2026-05-06 04:38 35.81951 -112.74268 19448 ft 384 kts 255°
2026-05-06 04:38 35.81192 -112.77441 20035 ft 388 kts 255°
2026-05-06 04:39 35.80422 -112.80662 20564 ft 394 kts 255°
2026-05-06 04:39 35.79642 -112.83918 21093 ft 399 kts 255°
2026-05-06 04:39 35.78852 -112.87210 21676 ft 403 kts 255°
2026-05-06 04:39 35.78053 -112.90535 22242 ft 406 kts 255°
2026-05-06 04:40 35.77246 -112.93891 22786 ft 411 kts 255°
2026-05-06 04:40 35.76426 -112.97292 23311 ft 416 kts 256°
2026-05-06 04:40 35.75607 -113.00687 23758 ft 420 kts 256°
2026-05-06 04:40 35.74769 -113.04156 24179 ft 424 kts 256°
2026-05-06 04:41 35.73921 -113.07665 24578 ft 429 kts 256°
2026-05-06 04:41 35.73062 -113.11208 24957 ft 434 kts 256°
2026-05-06 04:41 35.72191 -113.14802 25392 ft 437 kts 256°
2026-05-06 04:41 35.71323 -113.18368 26058 ft 433 kts 256°
2026-05-06 04:42 35.70471 -113.21864 26748 ft 429 kts 256°
2026-05-06 04:42 35.69615 -113.25372 27366 ft 428 kts 256°
2026-05-06 04:42 35.68759 -113.28882 27842 ft 427 kts 256°
2026-05-06 04:42 35.67900 -113.32402 27875 ft 432 kts 256°
2026-05-06 04:43 35.67036 -113.35937 27889 ft 430 kts 256°
2026-05-06 04:43 35.66174 -113.39451 27891 ft 429 kts 256°
2026-05-06 04:43 35.65313 -113.42967 27870 ft 430 kts 256°
2026-05-06 04:43 35.64447 -113.46490 27893 ft 430 kts 256°
2026-05-06 04:44 35.63580 -113.50014 27871 ft 431 kts 256°
2026-05-06 04:44 35.62710 -113.53552 27883 ft 431 kts 257°
2026-05-06 04:44 35.62049 -113.57132 27870 ft 428 kts 265°
2026-05-06 04:44 35.61670 -113.60754 27883 ft 427 kts 268°
2026-05-06 04:45 35.61379 -113.64348 27867 ft 428 kts 269°
2026-05-06 04:45 35.61103 -113.68002 27867 ft 428 kts 269°
2026-05-06 04:45 35.60816 -113.71655 27861 ft 428 kts 269°
2026-05-06 04:45 35.60514 -113.75260 27850 ft 429 kts 268°
2026-05-06 04:46 35.60191 -113.78910 27846 ft 429 kts 268°
2026-05-06 04:46 35.59856 -113.82553 27852 ft 429 kts 268°
2026-05-06 04:46 35.59515 -113.86197 27862 ft 429 kts 268°
2026-05-06 04:46 35.59166 -113.89840 27871 ft 428 kts 268°
2026-05-06 04:47 35.58816 -113.93473 27868 ft 428 kts 268°
2026-05-06 04:47 35.58465 -113.97108 27864 ft 428 kts 268°
2026-05-06 04:47 35.58114 -114.00744 27858 ft 428 kts 268°
2026-05-06 04:47 35.57761 -114.04377 27856 ft 428 kts 268°
2026-05-06 04:48 35.57408 -114.08012 27836 ft 429 kts 268°
2026-05-06 04:48 35.57058 -114.11604 27842 ft 429 kts 268°
2026-05-06 04:48 35.56703 -114.15245 27847 ft 429 kts 268°
2026-05-06 04:48 35.56347 -114.18881 27849 ft 430 kts 268°
2026-05-06 04:49 35.55987 -114.22542 27824 ft 430 kts 268°
2026-05-06 04:49 35.55627 -114.26186 27834 ft 430 kts 268°
2026-05-06 04:49 35.55265 -114.29841 27829 ft 429 kts 268°
2026-05-06 04:49 35.54905 -114.33479 27827 ft 429 kts 268°
2026-05-06 04:50 35.54543 -114.37115 27828 ft 429 kts 268°
2026-05-06 04:50 35.54185 -114.40706 27853 ft 429 kts 267°
2026-05-06 04:50 35.53821 -114.44340 27860 ft 429 kts 267°
2026-05-06 04:50 35.53456 -114.47971 27862 ft 429 kts 267°
2026-05-06 04:51 35.53089 -114.51617 27870 ft 429 kts 267°
2026-05-06 04:51 35.52722 -114.55248 27886 ft 428 kts 267°
2026-05-06 04:51 35.52354 -114.58885 27871 ft 429 kts 267°
2026-05-06 04:51 35.52109 -114.61292 27872 ft 429 kts 267°
2026-05-06 04:52 35.51738 -114.64929 27885 ft 429 kts 267°
2026-05-06 04:52 35.51367 -114.68565 27895 ft 429 kts 267°
2026-05-06 04:52 35.50994 -114.72199 27902 ft 429 kts 267°
2026-05-06 04:52 35.50620 -114.75842 27899 ft 429 kts 267°
2026-05-06 04:53 35.50248 -114.79453 27907 ft 430 kts 267°
2026-05-06 04:53 35.49871 -114.83096 27908 ft 430 kts 267°
2026-05-06 04:53 35.49493 -114.86736 27910 ft 430 kts 267°
2026-05-06 04:53 35.49113 -114.90390 27902 ft 430 kts 267°
2026-05-06 04:54 35.48733 -114.94029 27902 ft 430 kts 267°
2026-05-06 04:54 35.48357 -114.97617 27903 ft 429 kts 267°
2026-05-06 04:54 35.47976 -115.01252 27911 ft 429 kts 267°
2026-05-06 04:54 35.47594 -115.04880 27921 ft 429 kts 267°
2026-05-06 04:55 35.47211 -115.08507 27910 ft 429 kts 267°
2026-05-06 04:55 35.46827 -115.12130 27911 ft 428 kts 267°
2026-05-06 04:55 35.46441 -115.15780 27957 ft 436 kts 267°
2026-05-06 04:55 35.46046 -115.19519 27954 ft 447 kts 267°
2026-05-06 04:56 35.45639 -115.23342 27966 ft 456 kts 267°
2026-05-06 04:56 35.45220 -115.27252 27967 ft 467 kts 266°
2026-05-06 04:56 35.44772 -115.31252 27970 ft 478 kts 263°
2026-05-06 04:56 35.43684 -115.35161 27966 ft 494 kts 242°
2026-05-06 04:57 35.41643 -115.38583 27954 ft 501 kts 224°
2026-05-06 04:57 35.38900 -115.41189 27999 ft 498 kts 206°
2026-05-06 04:57 35.35874 -115.43138 27965 ft 498 kts 203°
2026-05-06 04:57 35.32762 -115.45025 27960 ft 498 kts 203°
2026-05-06 04:58 35.29655 -115.46910 27954 ft 498 kts 203°
2026-05-06 04:58 35.26563 -115.48828 27954 ft 496 kts 204°
2026-05-06 04:58 35.23494 -115.50772 27954 ft 495 kts 204°
2026-05-06 04:58 35.20437 -115.52730 27960 ft 493 kts 204°
2026-05-06 04:59 35.17439 -115.54651 27952 ft 489 kts 204°
2026-05-06 04:59 35.14489 -115.56573 27942 ft 473 kts 207°
2026-05-06 04:59 35.11808 -115.58805 27969 ft 459 kts 217°
2026-05-06 04:59 35.09506 -115.61426 27957 ft 446 kts 226°
2026-05-06 05:00 35.07413 -115.64152 27929 ft 434 kts 226°
2026-05-06 05:00 35.05355 -115.66838 27958 ft 432 kts 226°
2026-05-06 05:00 35.03286 -115.69523 27974 ft 438 kts 225°
2026-05-06 05:00 35.01177 -115.72238 27976 ft 442 kts 225°
2026-05-06 05:01 34.99054 -115.74956 27965 ft 441 kts 225°
2026-05-06 05:01 34.96939 -115.77653 27955 ft 439 kts 225°
2026-05-06 05:01 34.94858 -115.80300 27959 ft 437 kts 225°
2026-05-06 05:01 34.92753 -115.82974 27948 ft 436 kts 225°
2026-05-06 05:02 34.90652 -115.85641 27945 ft 436 kts 225°
2026-05-06 05:02 34.88550 -115.88307 27951 ft 436 kts 225°
2026-05-06 05:02 34.86449 -115.90971 27951 ft 436 kts 225°
2026-05-06 05:02 34.84339 -115.93645 27945 ft 437 kts 225°
2026-05-06 05:03 34.82229 -115.96318 27927 ft 438 kts 225°
2026-05-06 05:03 34.80116 -115.98992 27964 ft 438 kts 225°
2026-05-06 05:03 34.78002 -116.01665 27933 ft 439 kts 225°
2026-05-06 05:03 34.75885 -116.04346 27941 ft 439 kts 225°
2026-05-06 05:04 34.73802 -116.06996 27930 ft 439 kts 225°
2026-05-06 05:04 34.71693 -116.09684 27930 ft 438 kts 225°
2026-05-06 05:04 34.69591 -116.12364 27942 ft 438 kts 225°
2026-05-06 05:04 34.67488 -116.15041 27936 ft 438 kts 225°
2026-05-06 05:05 34.65373 -116.17732 27935 ft 438 kts 225°
2026-05-06 05:05 34.63262 -116.20415 27940 ft 438 kts 225°
2026-05-06 05:05 34.61185 -116.23050 27931 ft 438 kts 225°
2026-05-06 05:05 34.59079 -116.25721 27931 ft 437 kts 225°
2026-05-06 05:06 34.56970 -116.28394 27934 ft 437 kts 225°
2026-05-06 05:06 34.54866 -116.31057 27942 ft 437 kts 225°
2026-05-06 05:06 34.52756 -116.33727 27935 ft 437 kts 225°
2026-05-06 05:06 34.50642 -116.36400 27942 ft 437 kts 225°
2026-05-06 05:07 34.48564 -116.39026 27942 ft 437 kts 225°
2026-05-06 05:07 34.46455 -116.41689 27968 ft 437 kts 225°
2026-05-06 05:07 34.44346 -116.44349 27961 ft 438 kts 225°
2026-05-06 05:07 34.42287 -116.47076 27939 ft 439 kts 231°
2026-05-06 05:08 34.40579 -116.50133 27944 ft 438 kts 243°
2026-05-06 05:08 34.39212 -116.53428 27959 ft 437 kts 245°
2026-05-06 05:08 34.37897 -116.56753 27932 ft 437 kts 245°
2026-05-06 05:08 34.36598 -116.60024 27937 ft 436 kts 245°
2026-05-06 05:09 34.35270 -116.63294 27804 ft 429 kts 244°
2026-05-06 05:09 34.33944 -116.66511 27440 ft 423 kts 244°
2026-05-06 05:09 34.32639 -116.69681 26829 ft 420 kts 245°
2026-05-06 05:09 34.31360 -116.72845 26313 ft 414 kts 245°
2026-05-06 05:10 34.30122 -116.75932 26061 ft 402 kts 245°
2026-05-06 05:10 34.28910 -116.78957 25566 ft 397 kts 245°
2026-05-06 05:10 34.27709 -116.81950 25050 ft 393 kts 245°
2026-05-06 05:10 34.26522 -116.84901 24600 ft 387 kts 245°
2026-05-06 05:11 34.25350 -116.87809 24166 ft 381 kts 245°
2026-05-06 05:11 34.24208 -116.90639 23707 ft 377 kts 245°
2026-05-06 05:11 34.23064 -116.93471 23200 ft 372 kts 245°
2026-05-06 05:11 34.21935 -116.96259 22665 ft 368 kts 245°
2026-05-06 05:12 34.20839 -116.99028 22117 ft 363 kts 249°
2026-05-06 05:12 34.19994 -117.01879 21598 ft 358 kts 255°
2026-05-06 05:12 34.19280 -117.04740 21079 ft 353 kts 256°
2026-05-06 05:12 34.18576 -117.07569 20548 ft 350 kts 255°
2026-05-06 05:13 34.17849 -117.10360 20028 ft 346 kts 254°
2026-05-06 05:13 34.17111 -117.13105 19557 ft 341 kts 254°
2026-05-06 05:13 34.16376 -117.15811 19083 ft 337 kts 254°
2026-05-06 05:13 34.15641 -117.18485 18600 ft 334 kts 254°
2026-05-06 05:14 34.14919 -117.21104 18171 ft 331 kts 254°
2026-05-06 05:14 34.14201 -117.23706 17584 ft 323 kts 254°
2026-05-06 05:14 34.13493 -117.26275 16767 ft 322 kts 254°
2026-05-06 05:14 34.12788 -117.28839 15992 ft 321 kts 254°
2026-05-06 05:15 34.12095 -117.31348 15629 ft 310 kts 254°
2026-05-06 05:15 34.11416 -117.33808 15261 ft 309 kts 254°
2026-05-06 05:15 34.10730 -117.36295 14910 ft 315 kts 254°
2026-05-06 05:15 34.10061 -117.38816 14547 ft 316 kts 256°
2026-05-06 05:16 34.09432 -117.41348 14172 ft 313 kts 256°
2026-05-06 05:16 34.08821 -117.43825 13817 ft 310 kts 256°
2026-05-06 05:16 34.08200 -117.46320 13428 ft 308 kts 256°
2026-05-06 05:16 34.07581 -117.48797 13077 ft 309 kts 256°
2026-05-06 05:17 34.07012 -117.51307 12718 ft 309 kts 260°
2026-05-06 05:17 34.06613 -117.53829 12374 ft 308 kts 263°
2026-05-06 05:17 34.06262 -117.56378 12022 ft 307 kts 263°
2026-05-06 05:17 34.05918 -117.58921 11678 ft 307 kts 263°
2026-05-06 05:18 34.05568 -117.61458 11343 ft 307 kts 263°
2026-05-06 05:18 34.05210 -117.63995 10991 ft 307 kts 263°
2026-05-06 05:18 34.04847 -117.66529 10652 ft 307 kts 263°
2026-05-06 05:18 34.04478 -117.69069 10303 ft 307 kts 262°
2026-05-06 05:19 34.04106 -117.71605 9959 ft 307 kts 262°
2026-05-06 05:19 34.03736 -117.74111 9574 ft 307 kts 262°
2026-05-06 05:19 34.03361 -117.76647 9210 ft 307 kts 262°
2026-05-06 05:19 34.02985 -117.79174 8856 ft 306 kts 262°
2026-05-06 05:20 34.02610 -117.81699 8503 ft 304 kts 261°
2026-05-06 05:20 34.02236 -117.84203 8157 ft 303 kts 261°
2026-05-06 05:20 34.01864 -117.86696 7817 ft 301 kts 261°
2026-05-06 05:20 34.01493 -117.89172 7480 ft 299 kts 261°
2026-05-06 05:21 34.01124 -117.91634 7123 ft 297 kts 260°
2026-05-06 05:21 34.00757 -117.94081 6793 ft 295 kts 260°
2026-05-06 05:21 34.00391 -117.96512 6460 ft 293 kts 260°
2026-05-06 05:21 34.00032 -117.98896 6107 ft 291 kts 260°
2026-05-06 05:22 33.99672 -118.01290 5766 ft 289 kts 260°
2026-05-06 05:22 33.99315 -118.03659 5437 ft 286 kts 260°
2026-05-06 05:22 33.98960 -118.06008 5102 ft 284 kts 259°
2026-05-06 05:22 33.98591 -118.08333 4783 ft 281 kts 260°
2026-05-06 05:23 33.98271 -118.10650 4460 ft 279 kts 261°
2026-05-06 05:23 33.98001 -118.12955 4156 ft 276 kts 262°
2026-05-06 05:23 33.97535 -118.17387 3536 ft 257 kts 263°
2026-05-06 05:24 33.97321 -118.19489 3253 ft 248 kts 263°
2026-05-06 05:24 33.97122 -118.21523 2974 ft 241 kts 263°
2026-05-06 05:24 33.96930 -118.23481 2704 ft 228 kts 263°
2026-05-06 05:24 33.96742 -118.25317 2445 ft 213 kts 262°
2026-05-06 05:25 33.96569 -118.26987 2310 ft 193 kts 262°
2026-05-06 05:25 33.96408 -118.28537 2062 ft 179 kts 262°
2026-05-06 05:25 33.96261 -118.29969 1828 ft 168 kts 261°
2026-05-06 05:25 33.96119 -118.31343 1614 ft 161 kts 261°
2026-05-06 05:26 33.95987 -118.32628 1449 ft 147 kts 262°
2026-05-06 05:26 33.95864 -118.33817 1214 ft 141 kts 261°
2026-05-06 05:26 33.95744 -118.34981 1027 ft 140 kts 262°
2026-05-06 05:26 33.95625 -118.36147 839 ft 140 kts 262°
2026-05-06 05:27 33.95510 -118.37286 682 ft 136 kts 262°
2026-05-06 05:27 33.95391 -118.38399 470 ft 133 kts 261°
2026-05-06 05:27 33.95286 -118.39490 265 ft 129 kts 262°
2026-05-06 05:27 33.95176 -118.40527 124 ft 118 kts 262°
2026-05-06 05:28 33.95095 -118.41333 123 ft 75 kts 264°
2026-05-06 05:28 33.95027 -118.41764 122 ft 31 kts 239°
2026-05-06 05:28 33.94931 -118.41938 125 ft 19 kts 233°
2026-05-06 05:28 33.94926 -118.41947 124 ft 0 kts 233°
2026-05-06 05:34 33.94920 -118.41956 125 ft 7 kts 233°
2026-05-06 05:35 33.94857 -118.42057 121 ft 19 kts 233°
2026-05-06 05:35 33.94785 -118.42174 122 ft 14 kts 234°
2026-05-06 05:35 33.94713 -118.42230 124 ft 13 kts 167°
2026-05-06 05:35 33.94693 -118.42143 125 ft 12 kts 83°
2026-05-06 05:36 33.94702 -118.42048 125 ft 11 kts 83°
2026-05-06 05:36 33.94712 -118.41955 125 ft 11 kts 83°
2026-05-06 05:36 33.94721 -118.41865 125 ft 11 kts 83°
2026-05-06 05:36 33.94731 -118.41777 121 ft 10 kts 83°
2026-05-06 05:37 33.94739 -118.41692 125 ft 10 kts 83°
2026-05-06 05:37 33.94748 -118.41609 120 ft 10 kts 83°
2026-05-06 05:37 33.94757 -118.41518 125 ft 12 kts 83°
2026-05-06 05:37 33.94772 -118.41408 122 ft 14 kts 70°
2026-05-06 05:38 33.94790 -118.41327 121 ft 16 kts 81°
2026-05-06 05:38 33.94804 -118.41190 120 ft 17 kts 82°
2026-05-06 05:38 33.94816 -118.41054 125 ft 16 kts 85°
2026-05-06 05:38 33.94820 -118.40905 124 ft 8 kts 136°
2026-05-06 05:39 33.94787 -118.40884 121 ft 8 kts 166°
2026-05-06 05:39 33.94738 -118.40864 124 ft 8 kts 141°
2026-05-06 05:39 33.94706 -118.40834 123 ft 2 kts 141°